Location: �perlecques
(50.8057°N, 2.1521°E)
Time: 01:39:36
(UTC+00:00)

VELOX 1 - Pass Details

Date: 29 September 2021
Orbit: 627 x 642 km, 98.3° (Epoch: 21 October)

Event Time Altitude Azimuth Distance (km) Brightness Sun altitude
Exits shadow 04:12:25 28° 266° (W) 1,193 ? -15.9°
Drops below altitude 10° 04:16:10 10° 325° (NW) 2,017 ? -15.3°
Sets 04:18:38 0° 337° (NNW) 2,928 ? -14.9°
